Weather History for Valparaiso, IN

Change the Weather History Date:

Sunday, March 17, 2013

  Actual Average Record
Temperature  
Mean Temperature 33 °F 38 °F  
Max Temperature 37 °F 47 °F 78 °F (2012)
Min Temperature 29 °F 29 °F -4 °F (1900)
Degree Days  
Heating Degree Days 32 27  
Month to date heating degree days 550 507  
Since 1 July heating degree days 4941 5239  
Cooling Degree Days 0 0  
Month to date cooling degree days 0 0  
Year to date cooling degree days 0 0  
Moisture  
Dew Point 21 °F    
Average Humidity 65    
Maximum Humidity 75    
Minimum Humidity 56    
Precipitation  
Precipitation 0.00 in 0.07 in 1.26 in (1965)
Month to date precipitation 0.38 1.26  
Year to date precipitation 3.93 4.43  
Sea Level Pressure  
Sea Level Pressure 30.15 in    
Wind  
Wind Speed 11 mph (ENE)    
Max Wind Speed 20 mph    
Max Gust Speed 25 mph    
Visibility 10 miles    
Events      
T = Trace of Precipitation, MM = Missing Value Source: NWS Daily Summary

Daily Weather History Graph

Daily Weather History Graph

Search for Another Location

Airport:

Trip Planner

Search our weather history database for the weather conditions in past years. The results will help you decide how hot, cold, wet, or windy it might be!

Date:

Astronomy

Mar. 17, 2013 Rise Set
Actual Time 6:55 AM CDT 6:57 PM CDT
Civil Twilight 6:28 AM CDT 7:24 PM CDT
Nautical Twilight 5:56 AM CDT 7:57 PM CDT
Astronomical Twilight 5:23 AM CDT 8:29 PM CDT
Moon 10:04 AM CDT (3/17) 12:08 AM CDT (3/17)
Length of Visible Light 12h 56m
Length of Day
12h 01m
Waxing Crescent, 31% of the Moon is Illuminated
Mar 17
Waxing Crescent
Mar 19
First Quarter
Mar 27
Full
Apr 2
Last Quarter
Apr 10
New

Hourly Weather History & Observations

Time (CDT) Temp. Windchill Dew Point Humidity Pressure Visibility Wind Dir Wind Speed Gust Speed Precip Events Conditions
12:53 AM 30.0 °F - 21.9 °F 72% 30.14 in 10.0 mi Calm Calm - N/A   Overcast
1:53 AM 30.0 °F 25.2 °F 21.9 °F 72% 30.13 in 10.0 mi North 4.6 mph - N/A   Overcast
2:53 AM 30.9 °F 24.3 °F 21.9 °F 69% 30.14 in 10.0 mi North 6.9 mph - N/A   Overcast
3:53 AM 30.0 °F 21.7 °F 21.0 °F 69% 30.13 in 10.0 mi North 9.2 mph - N/A   Overcast
4:53 AM 30.0 °F 22.4 °F 21.0 °F 69% 30.13 in 10.0 mi North 8.1 mph - N/A   Overcast
5:53 AM 30.0 °F 21.7 °F 21.0 °F 69% 30.15 in 10.0 mi NNE 9.2 mph 17.3 mph N/A   Overcast
6:53 AM 30.0 °F 22.4 °F 21.0 °F 69% 30.19 in 10.0 mi NNE 8.1 mph - N/A   Overcast
7:53 AM 30.0 °F 22.4 °F 19.9 °F 66% 30.22 in 10.0 mi NE 8.1 mph - N/A   Overcast
8:53 AM 30.9 °F 21.2 °F 19.9 °F 64% 30.22 in 10.0 mi ENE 12.7 mph 20.7 mph N/A   Mostly Cloudy
9:53 AM 32.0 °F 21.6 °F 19.9 °F 61% 30.22 in 10.0 mi ENE 15.0 mph - N/A   Mostly Cloudy
10:53 AM 33.1 °F 24.4 °F 19.9 °F 59% 30.22 in 10.0 mi ENE 11.5 mph - N/A   Partly Cloudy
11:53 AM 34.0 °F 28.0 °F 19.9 °F 56% 30.21 in 10.0 mi ESE 6.9 mph - N/A   Mostly Cloudy
12:53 PM 35.1 °F 27.9 °F 21.0 °F 57% 30.20 in 10.0 mi East 9.2 mph 18.4 mph N/A   Overcast
1:32 PM 33.8 °F 24.3 °F 23.0 °F 65% 30.17 in 10.0 mi East 13.8 mph - N/A   Overcast
1:53 PM 34.0 °F 24.6 °F 23.0 °F 64% 30.19 in 10.0 mi East 13.8 mph - N/A   Overcast
3:37 PM 35.6 °F 27.1 °F 21.2 °F 56% 30.12 in 10.0 mi ESE 12.7 mph - N/A   Mostly Cloudy
3:53 PM 34.0 °F 27.2 °F 21.0 °F 59% 30.14 in 10.0 mi East 8.1 mph - N/A   Scattered Clouds
4:53 PM 36.0 °F 26.7 °F 21.9 °F 57% 30.12 in 10.0 mi East 15.0 mph 18.4 mph N/A   Scattered Clouds
5:53 PM 35.1 °F 26.9 °F 21.9 °F 59% 30.12 in 10.0 mi East 11.5 mph - N/A   Clear
6:53 PM 33.1 °F 24.9 °F 23.0 °F 66% 30.12 in 10.0 mi East 10.4 mph - N/A   Clear
7:53 PM 32.0 °F 22.1 °F 23.0 °F 69% 30.11 in 10.0 mi East 13.8 mph - N/A   Clear
8:53 PM 30.9 °F 19.1 °F 21.9 °F 69% 30.10 in 10.0 mi East 18.4 mph 23.0 mph N/A   Clear
9:53 PM 30.0 °F 20.5 °F 21.9 °F 72% 30.08 in 10.0 mi East 11.5 mph 19.6 mph N/A   Clear
10:53 PM 30.0 °F 19.5 °F 21.9 °F 72% 30.06 in 10.0 mi East 13.8 mph - N/A   Clear
11:53 PM 28.9 °F 17.7 °F 21.9 °F 75% 30.04 in 10.0 mi East 15.0 mph 21.9 mph N/A   Clear